CAPE
15 0 5 43 53 52 17 2 0 22 38 17 3 2 2 1 0 0 0 0 0 0 0 0 0 0 0 0 0 0 0 0 0 0 0 0 0 0 0 0 0 0 0 0 0 0 0 0 0 0 0 0 0 0
2 3 16 6 0 7 17 0 7 18 11 24 3 1 2 2 2 0 0 0 0 0 0 0 0 0 0 0 0 0 0 0 0 0 0 0 0 0 0 0 0 0 0 0 0 0 0 0 0 0 0 0 0 0
9 1 19 7 0 0 0 31 35 22 3 11 22 13 2 3 3 1 0 0 0 0 0 0 0 0 0 0 0 0 0 0 0 0 0 0 0 0 0 0 0 0 0 0 0 0 0 0 0 0 0 0 0 0
5 10 9 13 4 1 0 0 33 39 29 0 2 2 0 0 2 2 0 0 0 0 0 0 0 0 0 0 0 0 0 0 0 0 0 0 0 0 0 0 0 0 0 0 0 0 0 0 0 0 0 0 0 0
1 2 0 7 17 16 4 0 10 11 32 30 6 5 0 11 5 2 1 0 0 0 0 0 0 0 0 0 0 0 0 0 0 0 0 0 0 0 0 0 0 0 0 0 0 0 0 0 0 0 0 0 0 0
2 27 10 7 12 0 2 12 35 39 2 11 41 2 6 32 20 1 0 1 0 0 0 2 0 0 0 0 0 0 0 0 0 0 0 0 0 0 0 0 0 0 0 0 0 0 0 0 0 0 0 0 0 0
10 51 36 2 1 5 1 14 22 4 0 0 1 16 11 12 0 0 0 0 1 0 0 0 0 0 0 0 0 0 0 0 0 0 0 0 0 0 0 1 0 0 0 0 0 0 0 0 0 0 0 0 0 0
34 86 71 54 26 2 5 0 5 4 0 0 0 0 11 12 0 0 0 0 2 0 0 0 0 0 0 0 0 0 0 0 2 2 0 2 1 0 0 0 0 0 0 0 0 0 0 0 0 0 0 0 0 0
28 57 73 86 81 31 51 46 0 1 0 5 18 6 0 0 0 1 2 0 0 0 0 0 0 0 0 0 0 0 0 1 1 2 0 0 0 0 0 0 0 0 0 0 0 0 0 0 0 0 0 0 0 0
17 36 38 57 56 77 85 110 62 1 8 32 22 7 0 0 2 0 0 0 0 0 0 0 0 0 0 0 0 0 0 0 0 0 2 0 0 0 0 0 0 0 0 0 0 0 0 0 0 0 0 0 0 0
0 1 53 82 83 84 115 84 58 30 12 1 0 0 0 0 0 0 0 0 0 0 0 0 0 0 0 0 0 0 0 0 0 0 1 0 0 0 0 0 0 0 0 0 0 0 0 0 0 0 0 0 0 0
23 22 49 66 92 137 133 71 53 7 0 0 0 0 0 0 0 0 0 0 0 0 0 0 0 0 0 0 0 0 0 0 0 1 0 0 0 0 0 0 0 0 0 0 0 0 0 0 0 0 0 0 0 0
48 49 44 45 70 128 77 55 28 0 0 0 0 0 0 0 0 0 0 0 0 0 0 1 0 0 0 0 0 0 0 0 0 0 0 0 0 0 0 0 0 0 0 0 0 0 0 0 0 0 0 0 0 0
33 62 72 82 79 76 72 30 0 0 0 0 0 0 0 0 0 0 0 0 0 0 0 1 0 0 0 0 0 0 0 0 0 0 0 0 0 0 0 0 0 0 0 0 0 0 0 0 0 0 0 0 0 0
45 75 84 83 69 41 16 0 0 0 0 0 0 0 0 0 0 0 0 0 0 0 0 0 0 0 0 0 0 0 0 0 0 0 0 0 0 0 0 0 0 0 0 0 0 0 0 0 0 0 0 0 0 0
67 70 35 51 47 2 1 4 0 0 0 0 0 0 0 0 0 0 0 0 0 0 0 0 0 0 0 0 0 0 0 0 0 0 0 0 0 0 0 0 0 0 0 0 0 0 0 0 0 0 0 0 0 0
65 0 0 23 8 0 6 0 1 0 0 0 0 0 0 0 0 0 0 0 0 0 0 0 0 0 0 0 0 0 0 0 0 0 0 0 0 0 0 0 0 0 0 0 0 0 0 0 0 0 0 0 0 0
3 2 0 7 2 1 0 0 0 0 0 0 0 0 0 0 0 0 0 0 0 0 0 0 0 0 0 0 0 0 0 0 0 0 0 0 0 0 0 0 0 0 0 0 0 0 0 0 0 0 0 0 0 0
0 0 0 2 0 0 0 0 0 0 0 0 0 0 0 0 0 0 0 0 0 0 0 0 0 0 0 0 0 0 0 0 0 0 0 0 0 0 0 0 0 0 0 0 0 0 0 0 0 0 0 0 0 0
5 0 2 3 0 0 0 0 0 0 0 0 0 1 0 0 0 0 0 0 0 0 0 0 0 0 0 0 0 0 0 0 0 0 0 0 0 0 0 0 0 0 0 0 0 0 0 0 0 0 0 0 0 0
4 9 1 0 0 0 0 0 0 0 0 0 0 0 0 1 0 0 1 0 1 0 0 0 0 0 0 0 0 0 0 0 0 0 0 0 0 0 0 0 0 0 0 0 0 0 0 0 0 0 0 0 0 0
0 0 0 1 0 0 0 0 0 0 0 0 0 0 0 0 0 0 0 1 0 0 0 0 0 0 0 0 0 0 0 0 0 0 0 0 0 0 0 0 0 0 0 0 0 0 0 0 0 0 0 0 0 0
1 0 0 0 0 0 0 0 0 0 0 0 0 0 0 0 0 0 0 0 0 0 0 0 0 0 0 0 0 0 0 0 0 0 0 0 0 0 0 0 0 0 0 0 0 0 0 0 0 0 0 0 0 0
0 0 0 0 0 0 0 0 0 0 0 0 0 0 0 0 0 0 0 0 0 0 0 0 0 0 0 0 0 0 0 0 0 0 0 0 0 0 0 0 0 0 0 0 0 0 0 0 0 0 0 0 0 0
0 0 0 0 0 0 0 0 0 0 0 0 0 0 0 0 0 0 0 0 0 0 0 0 0 0 0 0 0 0 0 0 0 0 0 0 0 0 0 0 0 0 0 0 0 0 0 0 0 0 0 0 0 0
0 0 0 0 0 0 0 0 0 0 0 0 0 0 0 0 0 0 0 0 0 0 0 0 0 0 0 0 0 0 0 0 0 0 0 0 0 0 0 0 0 0 0 0 0 0 0 0 0 0 0 0 0 0
0 0 0 0 0 0 0 0 0 0 0 0 0 0 0 0 0 0 0 0 0 0 0 0 0 0 0 0 0 0 0 0 0 0 0 0 0 0 0 0 0 0 0 0 0 0 0 0 0 0 0 0 0 0
0 0 0 0 0 0 0 0 0 0 0 0 0 0 0 0 0 0 0 0 0 0 0 0 0 0 0 0 0 0 0 0 0 0 0 0 0 0 0 0 0 0 0 0 0 0 0 0 0 0 0 0 0 0
0 0 0 0 0 0 0 0 0 0 0 0 0 0 0 0 0 0 0 0 0 0 0 0 0 0 0 0 0 0 0 0 0 0 0 0 0 0 0 0 0 0 0 0 0 0 0 0 0 0 0 0 0 0
0 0 0 0 0 0 0 0 0 0 0 0 0 0 0 0 0 0 0 0 0 0 0 0 0 0 0 0 0 0 0 0 0 1 1 1 1 0 0 0 0 0 0 0 0 0 0 0 0 0 0 0 0 0
0 0 0 0 0 0 0 0 0 0 0 0 0 0 0 0 0 0 0 0 0 0 0 0 0 0 0 0 0 0 0 0 0 0 1 1 1 0 0 0 0 0 0 0 0 0 0 0 0 0 0 0 0 0
0 0 0 0 0 0 0 0 0 0 0 0 0 0 0 0 0 0 0 0 0 0 0 0 0 0 0 0 0 0 0 0 0 0 0 0 1 1 0 0 0 0 0 0 0 0 0 0 0 0 0 0 0 0
0 0 0 0 0 0 0 0 0 0 0 0 0 0 0 0 0 0 0 0 0 0 0 0 0 0 0 0 0 0 1 0 0 1 2 2 3 2 0 0 0 0 0 0 0 0 0 0 0 0 0 0 0 0
CIN
-16 0 -20 -1 -2 -2 -14 -10 0 -1 0 0 -1 0 0 0 0 0 0 0 0 0 0 0 0 0 0 0 0 0 0 0 0 0 0 0 0 0 0 0 0 0 0 0 0 0 0 0 0 0 0 0 0 0
-11 -10 -3 -3 0 -13 -7 -1 -18 -2 -1 -2 0 0 0 0 0 0 0 0 0 0 0 0 0 0 0 0 0 0 0 0 0 0 0 0 0 0 0 0 0 0 0 0 0 0 0 0 0 0 0 0 0 0
-12 -20 -1 -1 0 0 0 0 0 0 -15 -9 -5 -4 0 0 0 0 0 0 0 0 0 0 0 0 0 0 0 0 0 0 0 0 0 0 0 0 0 0 0 0 0 0 0 0 0 0 0 0 0 0 0 0
-13 -12 -12 -4 -12 -7 0 0 0 0 -1 0 -13 -14 0 0 0 0 0 0 0 0 0 0 0 0 0 0 0 0 0 0 0 0 0 0 0 0 0 0 0 0 0 0 0 0 0 0 0 0 0 0 0 0
-8 -20 -1 -9 -11 -14 -16 -7 -2 -5 0 0 -9 -11 0 -17 -5 0 0 0 0 0 0 0 0 0 0 0 0 0 0 0 0 0 0 0 0 0 0 0 0 0 0 0 0 0 0 0 0 0 0 0 0 0
-28 -13 -32 -21 -16 -1 -25 -15 -6 -1 -5 -13 -1 -6 -3 0 0 -1 0 0 0 0 0 0 0 0 0 0 0 0 0 0 0 0 0 0 0 0 0 0 0 0 0 0 0 0 0 0 0 0 0 0 0 0
-16 -7 -9 -3 -8 -26 -24 -25 -21 -17 0 0 0 0 -3 -1 0 0 0 0 0 0 -1 0 0 0 0 0 0 0 0 0 0 0 0 -1 0 0 0 0 0 0 0 0 0 0 0 0 0 0 0 0 0 0
-4 -1 -2 -6 -12 -43 -24 -4 -30 -15 0 0 0 0 0 -1 0 0 0 0 0 0 -2 0 0 0 0 0 0 0 0 0 -1 0 0 0 -1 0 0 0 0 0 0 0 0 0 0 0 0 0 0 0 0 0
-6 -2 -2 -2 -3 -12 -10 -16 0 -7 0 -9 -5 -4 0 0 0 0 0 0 0 0 0 0 0 0 0 0 0 0 0 0 -1 0 0 0 0 0 0 0 0 0 0 0 0 0 0 0 0 0 0 0 0 0
-7 -5 -11 -13 -16 -11 -8 -8 -16 -10 -14 -10 -9 -5 0 0 0 0 0 0 0 0 0 0 0 0 0 0 0 0 0 0 0 0 0 0 0 0 0 0 0 0 0 0 0 0 0 0 0 0 0 0 0 0
0 -2 -7 -7 -11 -16 -7 -9 -9 -6 -31 -16 0 0 0 0 0 0 0 0 0 0 0 0 0 0 0 0 0 0 0 0 0 0 0 0 0 0 0 0 0 0 0 0 0 0 0 0 0 0 0 0 0 0
-2 -13 -14 -13 -12 -8 -8 -12 -2 -3 0 0 0 0 0 0 0 0 0 0 0 0 0 0 0 0 0 0 0 0 0 0 0 0 0 0 0 0 0 0 0 0 0 0 0 0 0 0 0 0 0 0 0 0
0 -5 -20 -24 -25 -12 -14 -11 -13 0 0 0 0 0 0 0 0 0 0 0 0 0 0 0 0 0 0 0 0 0 0 0 0 0 0 0 0 0 0 0 0 0 0 0 0 0 0 0 0 0 0 0 0 0
-4 -5 -8 -11 -17 -18 -8 -4 0 0 -21 0 0 0 0 0 0 0 0 0 0 0 0 0 0 0 0 0 0 0 0 0 0 0 0 0 0 0 0 0 0 0 0 0 0 0 0 0 0 0 0 0 0 0
-6 -6 -8 -9 -8 -8 -8 0 -10 0 0 0 0 0 0 0 0 0 0 0 0 0 0 0 0 0 0 0 0 0 0 0 0 0 0 0 0 0 0 0 0 0 0 0 0 0 0 0 0 0 0 0 0 0
-8 -3 -4 -11 -6 -18 -5 -4 0 0 0 0 0 0 0 0 0 0 0 0 0 0 0 0 0 0 0 0 0 0 0 0 0 0 0 0 0 0 0 0 0 0 0 0 0 0 0 0 0 0 0 0 0 0
0 0 -2 -4 -13 0 0 0 0 0 0 0 0 0 0 0 0 0 0 0 0 0 0 0 0 0 0 0 0 0 0 0 0 0 0 0 0 0 0 0 0 0 0 0 0 0 0 0 0 0 0 0 0 0
-3 -6 0 -6 -5 0 0 0 0 0 0 0 0 0 0 0 0 0 0 0 0 0 0 0 0 0 0 0 0 0 0 0 0 0 0 0 0 0 0 0 0 0 0 0 0 0 0 0 0 0 0 0 0 0
-10 -1 0 -1 0 0 0 0 0 0 0 0 0 0 0 0 0 0 0 0 0 0 0 0 0 0 0 0 0 0 0 0 0 0 0 0 0 0 0 0 0 0 0 0 0 0 0 0 0 0 0 0 0 0
-5 -2 0 0 0 0 0 0 0 0 0 0 0 0 0 0 0 0 0 0 0 0 0 0 0 0 0 0 0 0 0 0 0 0 0 0 0 0 0 0 0 0 0 0 0 0 0 0 0 0 0 0 0 0
0 0 0 0 0 0 0 0 0 0 0 0 0 0 0 0 0 0 0 -1 0 0 0 0 0 0 0 0 0 0 0 0 0 0 0 0 0 0 0 0 0 0 0 0 0 0 0 0 0 0 0 0 0 0
0 0 0 0 0 0 0 0 0 0 0 0 0 0 0 0 0 0 0 0 0 0 0 0 0 0 0 0 0 0 0 0 0 0 0 0 0 0 0 0 0 0 0 0 0 0 0 0 0 0 0 0 0 0
0 0 0 0 0 0 0 0 0 0 0 0 0 0 0 0 0 0 0 0 0 0 0 0 0 0 0 0 0 0 0 0 0 0 0 0 0 0 0 0 0 0 0 0 0 0 0 0 0 0 0 0 0 0
0 0 0 0 0 0 0 0 0 0 0 0 0 0 0 0 0 0 0 0 0 0 0 0 0 0 0 0 0 0 0 0 0 0 0 0 0 0 0 0 0 0 0 0 0 0 0 0 0 0 0 0 0 0
0 0 0 0 0 0 0 0 0 0 0 0 0 0 0 0 0 0 0 0 0 0 0 0 0 0 0 0 0 0 0 0 0 0 0 0 0 0 0 0 0 0 0 0 0 0 0 0 0 0 0 0 0 0
0 0 0 0 0 0 0 0 0 0 0 0 0 0 0 0 0 0 0 0 0 0 0 0 0 0 0 0 0 0 0 0 0 0 0 0 0 0 0 0 0 0 0 0 0 0 0 0 0 0 0 0 0 0
0 0 0 0 0 0 0 0 0 0 0 0 0 0 0 0 0 0 0 0 0 0 0 0 0 0 0 0 0 0 0 0 0 0 0 0 0 0 0 0 0 0 0 0 0 0 0 0 0 0 0 0 0 0
0 0 0 0 0 0 0 0 0 0 0 0 0 0 0 0 0 0 0 0 0 0 0 0 0 0 0 0 0 0 0 0 0 0 0 0 0 0 0 0 0 0 0 0 0 0 0 0 0 0 0 0 0 0
0 0 0 0 0 0 0 0 0 0 0 0 0 0 0 0 0 0 0 0 0 0 0 0 0 0 0 0 0 0 0 0 0 0 0 0 0 0 0 0 0 0 0 0 0 0 0 0 0 0 0 0 0 0
0 0 0 0 0 0 0 0 0 0 0 0 0 0 0 0 0 0 0 0 0 0 0 0 0 0 0 0 0 0 0 0 0 0 0 0 0 0 0 0 0 0 0 0 0 0 0 0 0 0 0 0 0 0
0 0 0 0 0 0 0 0 0 0 0 0 0 0 0 0 0 0 0 0 0 0 0 0 0 0 0 0 0 0 0 0 0 0 0 0 0 0 0 0 0 0 0 0 0 0 0 0 0 0 0 0 0 0
0 0 0 0 0 0 0 0 0 0 0 0 0 0 0 0 0 0 0 0 0 0 0 0 0 0 0 0 0 0 0 0 0 0 0 0 0 0 0 0 0 0 0 0 0 0 0 0 0 0 0 0 0 0
0 0 0 0 0 0 0 0 0 0 0 0 0 0 0 0 0 0 0 0 0 0 0 0 0 0 0 0 0 0 0 0 0 0 0 0 0 0 0 0 0 0 0 0 0 0 0 0 0 0 0 0 0 0
Wind_Speed
44 43 45 46 43 39 34 35 36 38 41 42 40 39 38 36 34 34 38 32 37 41 41 34 33 32 29 30 34 27 25 28 27 30 31 33 35 32 34 31 30 29 27 29 29 33 40 22 21 28 29 29 31 30
42 44 46 43 41 38 43 38 35 32 32 33 38 40 38 37 36 34 40 33 32 40 40 36 38 35 32 30 30 27 32 26 24 29 31 31 36 33 35 42 30 36 31 34 29 33 30 21 27 23 30 33 33 32
38 37 44 43 41 40 37 37 37 37 34 32 32 31 35 39 37 35 38 31 33 42 47 47 45 38 34 33 29 35 35 29 31 27 30 33 39 32 40 43 39 37 33 39 39 38 36 33 31 31 33 34 33 32
34 33 35 36 39 41 43 42 40 44 41 37 36 37 36 35 36 34 37 33 32 33 47 47 36 46 35 35 35 33 32 30 30 31 37 40 43 35 43 43 44 40 32 38 44 42 41 38 36 36 37 35 37 37
32 33 33 33 34 35 40 42 43 43 40 41 40 37 36 34 31 35 33 33 32 36 38 41 37 38 36 37 37 37 36 35 37 39 42 46 41 41 42 44 51 38 42 44 50 42 42 45 39 36 39 39 35 35
30 31 31 33 32 32 30 33 33 35 35 38 39 36 33 34 29 29 39 36 35 31 37 45 37 37 33 35 39 40 37 39 41 42 45 45 41 41 47 55 52 44 42 42 52 49 47 45 41 38 41 39 38 36
29 30 29 31 31 30 31 30 29 26 31 34 29 35 34 34 31 37 35 31 30 28 32 38 42 36 33 32 33 36 34 38 40 41 45 47 45 40 49 58 63 45 49 48 45 45 48 45 47 42 40 41 40 38
26 28 29 29 31 30 31 32 30 29 27 28 31 32 36 33 29 36 31 23 21 30 32 37 35 34 27 32 35 31 35 35 37 39 39 44 42 43 53 56 56 53 52 56 54 51 55 56 52 46 44 46 45 42
26 28 28 29 31 31 30 31 30 29 27 29 25 26 27 30 34 32 22 20 24 31 37 37 42 46 29 32 30 29 29 38 33 40 41 35 41 48 49 50 51 52 48 53 52 52 52 52 53 50 48 48 47 45
24 27 29 30 30 31 30 30 28 26 23 18 19 25 31 28 7 10 23 31 32 33 32 39 35 41 32 35 35 32 32 36 39 39 31 41 47 49 49 47 50 49 46 46 50 54 51 53 52 52 48 47 44 45
23 26 28 28 28 29 30 30 27 21 18 22 25 25 17 14 19 26 29 29 29 35 33 35 36 36 31 37 35 32 33 34 44 41 38 41 48 46 40 44 44 47 45 45 45 49 48 49 51 49 45 41 40 41
21 24 27 27 27 27 26 25 22 24 25 23 16 14 18 20 24 30 32 29 31 35 31 34 36 32 30 28 33 33 40 36 44 27 37 45 46 44 41 39 38 38 38 39 39 42 43 43 39 41 42 43 43 38
19 22 26 27 27 25 24 21 21 17 16 21 24 24 23 23 31 35 40 34 36 33 32 32 34 30 29 29 31 32 40 41 28 35 40 41 42 38 40 38 37 37 37 38 39 39 39 40 39 40 43 38 40 37
19 21 24 24 24 25 20 16 17 18 23 27 27 32 33 30 33 36 37 34 29 28 28 30 31 31 30 33 33 38 34 32 40 43 46 43 38 36 36 35 35 35 34 37 38 38 38 38 40 36 35 36 35 36
20 20 20 22 19 19 16 16 18 18 21 24 25 32 32 30 27 25 23 22 21 16 16 23 27 28 30 33 30 31 33 38 38 42 38 31 28 29 32 31 31 33 31 31 31 33 34 35 35 37 35 34 32 31
22 19 19 19 16 17 15 15 21 20 20 21 24 26 26 25 27 26 25 23 17 16 16 18 23 26 29 28 30 34 35 40 39 35 32 29 28 27 28 28 29 29 31 34 36 37 37 37 37 36 35 33 30 27
16 21 20 20 18 20 19 22 19 19 21 23 23 23 20 22 25 25 23 22 18 16 24 23 25 28 21 29 34 29 37 35 29 27 27 26 27 29 29 30 31 33 36 36 36 37 38 37 35 35 37 32 27 22
23 22 15 17 22 22 22 21 22 19 22 22 23 21 21 23 24 24 22 16 19 22 22 26 21 28 31 34 35 32 30 29 29 29 30 30 30 30 30 31 32 34 36 37 37 36 37 36 35 32 30 26 22 18
20 15 12 14 20 23 19 23 22 19 20 18 19 19 22 23 23 22 19 16 22 20 21 24 28 30 32 29 28 26 27 26 27 27 26 25 25 24 27 30 31 33 34 35 35 35 34 33 33 28 20 15 15 11
18 24 12 13 20 21 21 19 22 17 19 18 18 17 20 22 19 18 16 16 18 19 26 27 29 25 24 23 22 24 24 21 24 29 29 25 23 24 29 32 35 35 36 36 35 34 33 31 28 23 15 12 10 8
21 17 13 19 19 15 17 18 16 17 19 22 17 17 20 18 19 19 16 13 18 23 25 26 26 24 24 25 25 25 26 24 28 28 29 30 28 30 35 37 37 35 34 37 37 35 31 30 26 21 17 13 10 6
21 17 18 16 17 16 15 18 17 16 18 17 16 18 19 19 18 18 15 20 25 25 22 24 25 26 30 31 30 26 28 28 30 33 34 35 38 38 38 38 37 39 38 39 39 37 34 28 23 19 18 15 9 7
18 15 17 15 14 16 17 17 21 19 20 18 17 20 21 20 18 12 21 24 26 21 17 19 25 27 30 31 31 30 30 33 36 35 35 36 38 38 39 40 37 41 42 42 37 37 34 26 22 17 13 12 10 9
16 14 14 17 15 15 15 18 18 18 16 16 17 20 18 16 12 20 26 22 20 20 21 23 26 31 33 32 34 35 33 32 36 37 34 35 38 38 35 37 38 40 39 38 36 34 30 24 16 11 9 8 9 9
16 18 16 14 16 17 18 16 20 20 18 18 18 20 18 15 19 23 26 25 25 27 28 30 32 32 35 36 35 33 29 28 32 37 34 32 35 37 40 40 41 42 36 34 32 32 30 18 15 13 13 13 11 9
18 18 19 16 14 16 15 20 20 20 17 19 20 17 16 18 22 26 24 22 23 24 24 25 27 29 30 29 33 33 33 31 33 38 40 36 34 36 43 46 46 43 32 29 30 27 18 18 18 19 20 16 13 12
17 18 17 17 14 14 16 17 16 17 19 19 17 16 16 19 21 23 23 24 26 27 29 30 31 33 35 37 37 37 38 38 39 41 42 40 35 32 34 44 46 39 33 32 29 15 20 20 20 21 21 20 17 11
17 16 15 13 14 15 14 15 15 15 15 14 14 19 21 20 24 23 23 24 28 30 30 31 30 31 32 34 36 37 38 37 39 40 42 41 38 37 35 38 41 41 38 36 35 28 24 24 23 19 17 15 16 17
13 12 12 13 15 17 17 18 18 18 14 14 17 20 21 19 20 23 24 28 29 29 30 31 31 32 32 32 31 33 34 35 39 42 43 44 43 39 34 35 38 39 39 37 33 26 22 25 23 14 11 11 11 12
11 13 13 14 14 16 16 15 16 15 15 16 17 18 18 19 20 22 25 26 27 27 28 27 28 29 29 30 31 32 32 31 30 34 36 38 38 36 36 35 36 37 35 34 31 27 23 24 24 21 16 16 17 16
13 14 14 14 15 15 15 16 16 16 16 16 16 17 16 14 16 21 25 25 25 24 25 26 25 25 27 28 29 31 32 30 33 34 35 36 35 34 33 32 32 32 32 32 29 24 23 20 20 21 21 14 12 11
15 14 13 13 14 16 17 17 17 17 16 15 15 14 14 14 15 18 24 24 24 25 25 25 25 26 26 26 27 27 28 31 33 34 34 33 32 31 29 28 28 27 27 28 27 28 27 24 20 18 20 15 10 11
13 13 14 15 15 16 17 17 17 17 16 16 16 16 16 16 16 16 18 21 23 24 25 26 25 24 26 26 27 28 30 31 32 33 32 31 30 28 23 22 23 25 26 26 25 26 28 30 30 28 28 24 16 16
Wind_Direction
248 245 246 243 244 239 243 244 245 246 243 238 237 235 235 235 234 241 252 250 252 260 262 263 262 263 266 265 267 274 277 277 276 274 279 282 284 283 287 289 290 289 292 294 296 296 301 309 321 315 323 328 327 325
251 247 242 244 245 250 235 240 244 246 245 244 242 238 236 236 235 237 253 250 251 259 266 266 264 266 267 268 265 265 274 278 272 277 277 284 282 284 284 285 286 286 284 293 285 295 308 306 312 310 322 319 321 319
252 251 247 246 245 245 246 240 239 241 243 245 246 248 244 244 238 234 250 249 251 258 265 264 261 264 265 266 271 266 270 273 275 281 280 280 281 283 281 283 285 287 289 286 293 293 292 300 301 306 311 310 313 313
249 248 249 250 246 247 245 247 246 240 244 247 248 248 252 256 242 233 248 246 250 261 261 267 270 260 267 262 264 269 273 274 276 276 276 276 277 280 281 284 283 286 288 288 289 292 299 299 301 305 307 308 308 306
251 250 249 250 248 246 244 245 247 249 249 246 248 250 251 253 249 240 253 248 248 254 266 268 273 269 268 261 263 261 264 269 271 270 272 274 278 280 283 284 280 281 282 283 286 295 294 297 301 306 305 306 308 307
251 251 251 249 249 249 250 251 246 248 250 252 248 246 249 246 242 249 254 254 247 255 268 266 274 271 271 266 262 262 265 267 268 270 272 274 276 281 280 278 270 280 281 283 286 292 292 294 299 302 300 301 304 300
249 249 251 251 251 250 247 246 247 252 254 251 256 247 245 241 244 248 255 259 240 250 265 268 269 270 270 271 270 269 267 268 269 270 269 271 275 275 276 274 259 284 286 288 289 291 291 294 295 299 296 298 299 298
250 249 249 251 250 250 248 246 247 249 254 260 253 255 253 246 250 251 254 254 244 256 263 264 267 270 267 269 270 270 268 266 270 270 276 274 277 274 277 273 280 284 285 284 284 286 288 292 294 295 296 297 296 296
250 250 250 249 247 246 246 246 247 248 251 255 257 255 264 255 251 254 248 239 258 259 257 260 257 265 266 268 272 274 275 270 274 269 272 274 274 273 276 282 281 284 283 286 287 286 286 288 290 292 293 294 293 294
248 250 250 249 249 247 245 243 243 243 247 245 253 255 253 257 225 247 261 257 258 260 262 261 263 263 266 267 266 271 275 272 274 273 278 274 277 278 279 280 283 287 288 290 288 286 287 287 289 291 293 293 294 295
248 250 250 249 248 248 244 241 240 233 234 245 250 253 263 260 262 261 255 254 257 257 258 260 256 260 266 264 268 271 278 276 275 276 271 278 281 283 284 285 286 288 288 287 286 287 288 289 291 295 297 297 297 298
247 249 249 248 246 245 240 235 224 231 239 238 241 258 251 260 262 256 251 253 258 258 260 258 262 267 266 272 272 274 276 277 277 279 276 279 284 291 295 296 295 294 292 291 290 289 291 292 295 296 297 298 298 298
245 247 247 245 243 242 236 230 221 210 216 241 248 248 253 256 252 249 247 256 259 262 265 264 262 266 271 271 273 273 273 275 283 278 280 282 290 294 298 300 298 297 297 297 297 297 298 298 298 297 297 298 297 298
246 247 246 244 240 234 231 209 188 215 239 244 244 245 248 253 257 256 258 266 269 272 268 262 264 268 271 267 270 271 275 277 276 277 280 289 293 295 298 300 302 302 303 302 301 302 303 303 302 304 301 301 300 298
245 245 244 238 231 224 218 195 191 228 244 246 248 249 249 256 265 265 266 266 275 273 273 271 271 269 270 269 271 272 273 275 277 282 288 297 301 302 303 304 305 306 308 308 311 311 311 311 309 307 306 304 302 299
241 240 242 231 219 217 205 201 228 241 248 252 254 252 256 256 257 261 260 266 276 270 274 280 276 273 269 272 271 268 272 276 286 289 294 301 303 305 307 309 310 311 308 305 306 308 309 310 309 307 307 306 304 301
231 243 233 228 219 223 213 230 236 242 246 256 259 255 253 261 258 262 267 266 259 253 263 272 269 270 280 273 272 277 279 287 293 295 297 300 303 307 308 310 311 309 307 308 306 307 307 308 309 308 304 306 303 300
238 232 233 221 213 208 222 233 233 248 252 257 255 257 258 267 268 269 268 256 257 256 264 273 276 270 274 275 278 285 287 290 293 294 296 299 301 304 308 311 312 312 310 308 305 305 305 307 306 307 308 306 303 302
230 234 219 191 210 221 236 238 246 254 262 259 262 265 265 270 274 278 269 255 269 263 270 273 275 275 276 284 289 294 294 295 297 298 302 306 309 311 315 318 319 317 317 312 308 306 305 304 303 306 312 307 302 301
231 221 195 174 211 227 234 252 247 258 259 265 268 266 270 272 275 276 273 261 269 269 265 269 270 282 292 294 296 298 300 303 301 300 301 310 315 313 315 316 316 316 312 309 307 306 304 304 303 302 304 296 293 292
223 215 196 209 224 241 246 248 254 264 260 261 270 271 278 281 273 272 275 270 270 272 271 272 278 284 286 290 295 298 299 303 301 301 302 304 309 309 309 311 314 313 311 307 303 305 305 302 302 299 293 289 287 285
215 211 215 224 236 252 258 262 259 267 270 271 268 275 278 280 278 275 277 270 275 273 279 281 282 282 282 285 293 301 301 303 301 297 298 299 298 303 306 307 308 305 300 299 300 298 298 300 300 295 286 283 282 281
210 218 222 238 252 260 263 262 257 266 267 269 275 279 280 283 287 285 274 277 278 287 291 288 287 288 288 293 297 300 301 299 297 298 300 300 301 302 303 301 305 297 294 293 298 296 294 299 295 288 279 275 273 276
216 228 244 243 255 257 262 262 264 264 275 280 281 280 280 282 293 277 275 286 297 300 297 295 293 292 293 295 296 297 300 301 299 300 302 302 302 302 303 301 298 292 292 294 296 295 294 294 292 274 256 247 262 261
232 244 256 254 259 258 262 266 258 265 274 281 272 269 276 288 283 282 284 292 296 296 296 296 295 295 293 295 299 304 309 307 303 301 306 306 303 301 298 294 291 285 292 293 297 290 289 294 280 262 254 254 253 255
249 257 251 256 267 269 271 260 258 266 285 279 273 280 288 290 287 288 299 307 309 311 314 314 311 308 306 306 304 304 304 307 307 304 304 306 303 300 290 282 279 281 292 291 290 291 291 283 271 263 259 255 257 256
255 259 268 266 274 273 274 271 271 277 277 279 283 288 291 294 297 302 308 311 311 313 314 313 310 306 303 302 303 304 304 304 302 300 300 300 302 301 296 280 271 284 289 284 284 291 288 277 265 258 257 259 261 245
259 260 262 265 273 279 281 279 283 287 295 297 291 287 293 299 303 310 315 319 320 319 317 316 315 313 310 309 308 308 308 308 307 303 298 295 296 295 294 286 278 275 275 273 272 286 285 273 262 255 251 251 261 264
278 274 275 277 283 288 288 289 288 293 301 298 299 300 304 312 318 318 319 322 324 323 319 317 316 316 314 315 315 316 316 316 309 302 298 293 292 292 293 286 276 268 265 267 270 281 283 270 262 252 229 221 250 259
290 288 294 293 297 297 302 305 307 310 307 306 309 314 316 319 324 329 325 323 323 325 326 325 325 326 324 322 319 317 319 322 322 316 310 304 296 292 287 283 274 264 264 264 267 275 276 269 262 262 262 266 271 269
308 303 303 304 305 309 313 316 317 317 317 316 316 313 319 330 333 332 327 323 322 325 330 329 331 334 329 323 320 314 318 336 324 321 318 310 304 295 285 280 274 265 263 262 264 269 269 266 264 263 264 262 253 252
296 303 312 310 309 302 307 314 316 316 321 324 327 333 338 341 343 337 328 327 327 323 324 321 322 324 336 334 325 329 334 333 331 332 322 315 308 299 287 281 271 269 270 265 266 262 263 265 267 267 269 265 225 238
326 322 323 321 318 319 315 319 324 324 324 325 326 328 332 340 342 344 345 343 337 328 324 323 323 333 331 320 323 326 329 337 335 332 321 321 321 317 302 288 279 275 273 271 272 270 267 265 266 268 269 272 271 271